Location: Ellerstadt
(49.4644°N, 8.2615°E)
Time: 22:18:21
(UTC+00:00)

ATLAS CENTAUR R/B - Pass Details

Date: 03 March 2021
Orbit: 475 x 670 km, 64.7° (Epoch: 30 March)

Event Time Altitude Azimuth Distance (km) Brightness Sun altitude
Rises 19:58:05 0° 247° (WSW) 2,520 5.3 -27.1°
Reaches altitude 10° 20:00:23 10° 259° (W) 1,645 4.4 -27.4°
Enters shadow 20:03:16 29° 310° (NW) 913 3.0 -27.8°
